Regional Weather Roundup
Issued by NWS Bismarck, ND

Home | Current Version | Previous Version | Text Only | Print | Product List | Glossary On
Versions: 1 2 3 4 5 6 7 8 9 10 11 12 13 14 15 16 17 18 19 20 21 22 23 24 25 26 27 28 29 30 31 32 33 34 35 36 37 38 39 40 41 42 43 44 45 46 47 48 49 50
000
ASUS43 KBIS 191002
RWRBIS

NWR BROADCAST TEXT
NATIONAL WEATHER SERVICE BISMARCK ND
500 AM CDT TUE SEP 19 2017

NOTE: "FAIR" INDICATES FEW OR NO CLOUDS BELOW 12,000 FEET WITH NO
SIGNIFICANT WEATHER AND/OR OBSTRUCTIONS TO VISIBILITY.


CITY           SKY/WX    TMP DP  RH WIND       PRES   REMARKS
WILLISTON      CLOUDY    63  44  50 VRB3G17   29.48F
MINOT          CLOUDY    50  48  93 E9        29.60F
MINOT AFB      CLOUDY    50  48  93 SE13      29.59F
BISMARCK       CLOUDY    56  51  84 E9        29.61F
DICKINSON      CLOUDY    57  49  74 E13       29.47F
GARRISON         N/A     57  49  74 E20       29.58F
HETTINGER ARPT CLOUDY    61  49  64 SE13G22   29.52F
JAMESTOWN      FOG       59  58  96 SE10      29.72F VSB 1
CARRINGTON     FOG       55  55 100 SE10      29.73F VSB 1/4
HAZEN          PTSUNNY   59  48  67 E13G20    29.56F
LINTON         FAIR      61  59  94 SE17G24   29.63F
MANDAN         PTSUNNY   55  50  82 E14       29.60F
RUGBY          FOG       52  52 100 E15       29.68F VSB 3/4
STANLEY        FAIR      54  48  82 E13       29.58F
TIOGA          FAIR      57  43  58 SE22      29.53F
WATFORD CITY   FAIR      61  46  59 E18G28    29.45F
$$

CITY           SKY/WX    TMP DP  RH WIND       PRES   REMARKS
GRAND FORKS    CLOUDY    59  59 100 SE10      29.79S FOG
GRAND FORKS AF CLOUDY    59  59 100 S8        29.80S FOG
DEVILS LAKE    CLOUDY    57  55  93 SE14      29.74F
FARGO          CLOUDY    61  61 100 SE10G18   29.80S FOG
CANDO          CLOUDY    55  57 100 SE14G21   29.75F
CAVALIER       CLOUDY    57  57 100 VRB6      29.79S FOG
GRAFTON        CLOUDY    59  59 100 SE10      29.81F
GWINNER        CLOUDY    63  63 100 SE10      29.76F FOG
LANGDON        CLOUDY    57  57 100 SE10G16   29.78S FOG
ROLLA          FOG       54  54 100 SE15      29.74F VSB 1/4
WALHALLA       FAIR     N/A N/A N/A SE8       29.78F FOG
$$

CITY           SKY/WX    TMP DP  RH WIND       PRES   REMARKS
ABERDEEN       CLOUDY    63  63 100 SE12      29.72F
MOBRIDGE       CLOUDY    64  58  80 SE14      29.60F
BUFFALO          N/A     63  43  48 S22G28    29.40F
GLASGOW        CLOUDY    54  48  80 NW5       29.51F
SIDNEY         CLOUDY    62  46  55 W5        29.49R
WOLF POINT     LGT RAIN  58  46  64 W10       29.51R
GLENDIVE       CLOUDY    58  48  69 W6        29.47F
MILES CITY     LGT RAIN  58  46  64 N9        29.48F
BAKER          CLOUDY    59  45  59 S8        29.50R
$$

CITY           SKY/WX    TMP DP  RH WIND       PRES   REMARKS
BILLINGS       CLOUDY    52  43  71 SW12      29.59S
GREAT FALLS    CLOUDY    44  34  67 SW8       29.63F
$$





USA.gov is the U.S. government's official web portal to all federal, state and local government web resources and services.